This is the latest recevied weather packets stored in our database for station/object VE9LJW. If no packets are shown the sender has not sent any weather packets the latest 10 day(s).
| Time | Temp. | Humidity | Pressure | Rain* | Wind** | Luminosity | Snow |
|---|---|---|---|---|---|---|---|
| 1777595921 | 12.22° C | 99% | 1006.8 hPa | 4.83 mm | - | 0 W/m² | - |
| 1777595616 | 12.22° C | 98% | 1007 hPa | 4.32 mm | - | 0 W/m² | - |
| 1777595312 | 12.22° C | 98% | 1006.9 hPa | 3.56 mm | - | 0 W/m² | - |
| 1777595008 | 12.78° C | 98% | 1006.8 hPa | 4.32 mm | - | 0 W/m² | - |
| 1777594705 | 12.78° C | 97% | 1006.8 hPa | 2.29 mm | - | 0 W/m² | - |
| 1777594402 | 12.78° C | 96% | 1006.6 hPa | 0.51 mm | - | 0 W/m² | - |
| 1777594097 | 12.78° C | 96% | 1006.5 hPa | 0.51 mm | - | 0 W/m² | - |
| 1777593794 | 12.78° C | 96% | 1006.5 hPa | 0 mm | - | 0 W/m² | - |
| 1777593490 | 12.78° C | 96% | 1006.6 hPa | 0.51 mm | - | 0 W/m² | - |
| 1777593190 | 12.78° C | 95% | 1006.4 hPa | 0 mm | - | 0 W/m² | - |
| 1777592889 | 12.78° C | 95% | 1006.7 hPa | 0.51 mm | - | 0 W/m² | - |
| 1777592585 | 12.78° C | 95% | 1006.6 hPa | 0.51 mm | - | 0 W/m² | - |
| 1777592281 | 12.78° C | 94% | 1006.8 hPa | 0 mm | - | 0 W/m² | - |
| 1777591976 | 12.78° C | 94% | 1006.7 hPa | 1.27 mm | - | 0 W/m² | - |
| 1777591672 | 12.78° C | 94% | 1006.8 hPa | 1.78 mm | - | 0 W/m² | - |
| 1777591369 | 12.78° C | 93% | 1006.8 hPa | 1.27 mm | - | 0 W/m² | - |
| 1777591065 | 12.78° C | 92% | 1006.8 hPa | 0.51 mm | - | 0 W/m² | - |
| 1777590761 | 12.78° C | 91% | 1006.9 hPa | 1.27 mm | - | 0 W/m² | - |
| 1777590456 | 12.78° C | 92% | 1006.8 hPa | 1.27 mm | - | 1 W/m² | - |
| 1777590154 | 13.33° C | 92% | 1006.8 hPa | 1.27 mm | - | 0 W/m² | - |
| 1777589850 | 13.33° C | 90% | 1007 hPa | 1.27 mm | - | 0 W/m² | - |
| 1777589545 | 13.33° C | 90% | 1007.2 hPa | 0.51 mm | - | 0 W/m² | - |
| 1777589244 | 13.33° C | 89% | 1007.1 hPa | 0.51 mm | - | 2 W/m² | - |
| 1777588941 | 13.33° C | 88% | 1007.2 hPa | 0.51 mm | - | 5 W/m² | - |
| 1777588636 | 13.89° C | 86% | 1007.3 hPa | 0.51 mm | - | 7 W/m² | - |
* Rain latest hour (hover to see other rain measurements)
** Current wind speed in m/s (hover to see current wind gust speed)